Wind_Speed
58 59 60 61 61 63 65 66 67 65 63 61 61 62 64 65 65 65 66 67 68 68 67 65 63 61 59 59 59 59 59 60 60 60 60 60 60 60 60 60 61 60 60 59 59 59 58 58 58 57 57 56 55 55 54 54 54 54 55 55 56 56 56 55 54 52 52 51 51 51 51 51 51 51 52 52 52 53 53 54 54 55 54 54 54
59 61 62 63 63 64 66 67 67 66 64 62 61 60 61 62 64 64 64 65 65 66 67 67 66 65 62 61 60 59 59 60 60 61 61 62 62 62 63 63 63 63 63 62 61 62 62 62 62 61 60 59 57 56 55 55 55 56 56 57 57 56 55 55 55 54 54 54 53 53 53 52 52 51 51 52 53 54 55 55 55 54 53 53 53
61 61 63 64 65 66 66 67 67 66 65 64 63 62 61 61 62 62 63 64 65 65 65 65 66 66 65 64 62 61 60 60 61 62 63 64 65 66 66 67 67 66 65 64 64 65 64 64 64 63 62 60 58 57 57 56 56 56 56 56 56 56 56 56 56 56 57 56 56 55 55 54 54 53 53 54 54 54 54 54 53 52 51 51 52
66 64 62 63 65 66 66 65 65 65 66 66 66 66 65 64 63 63 63 64 65 66 66 65 65 64 63 63 62 61 61 60 61 62 65 66 67 68 68 69 68 68 67 67 67 66 66 65 64 63 62 61 60 59 58 56 56 56 56 56 56 57 58 58 58 58 58 57 57 56 56 55 55 55 55 54 53 51 49 48 47 47 47 48 50
70 70 67 62 62 64 65 64 64 64 64 66 67 68 68 68 68 68 67 66 66 67 68 69 69 68 66 64 63 62 62 62 62 63 65 67 68 69 69 70 70 69 69 69 69 67 66 65 64 63 62 61 60 59 58 56 56 56 56 56 57 58 59 60 60 60 59 59 58 58 58 58 57 57 57 55 52 49 46 45 45 45 46 47 48
71 74 74 68 63 62 64 65 66 66 67 68 69 69 69 69 69 70 71 71 71 70 71 72 73 74 74 73 71 69 68 67 66 66 67 69 70 70 70 71 71 72 72 72 71 69 67 65 64 63 62 62 60 58 57 56 56 57 58 58 59 60 61 62 62 62 62 61 61 61 61 60 59 58 57 54 52 50 47 46 46 47 47 48 49
73 74 77 77 73 69 68 68 68 69 70 71 72 73 73 72 72 71 71 72 74 74 74 73 74 76 77 77 77 76 74 72 70 70 71 72 73 73 73 73 73 74 75 73 71 68 66 64 63 62 61 61 60 58 56 56 56 59 60 61 62 62 63 64 65 65 64 64 64 64 63 62 60 59 56 54 53 51 50 49 49 49 49 49 50
76 75 76 79 80 79 76 73 71 72 72 72 73 74 76 77 77 77 75 74 75 76 77 77 76 77 77 77 77 77 76 75 73 73 74 75 76 76 76 76 76 75 75 73 70 67 65 64 64 62 60 59 59 58 57 57 57 60 62 63 64 65 66 67 68 67 67 66 66 66 65 63 61 58 56 55 54 52 51 50 50 51 51 51 51
77 76 76 78 79 81 80 77 74 73 74 74 74 75 76 78 80 80 81 80 79 80 81 81 80 79 79 79 78 77 76 75 74 74 74 74 76 78 79 79 78 77 76 74 70 67 65 65 65 63 60 58 58 59 59 59 59 60 62 65 66 68 69 70 70 69 69 68 67 66 64 62 60 58 56 55 54 53 51 51 51 52 53 53 53
79 78 77 77 78 79 80 79 77 75 74 74 75 76 77 79 80 82 83 84 85 85 85 86 85 84 83 82 80 79 78 77 76 75 75 75 76 78 80 80 80 79 77 74 71 68 67 66 65 63 61 59 58 60 62 62 61 60 62 65 68 70 72 73 72 71 70 68 67 65 63 61 58 57 56 55 53 52 51 52 52 53 52 52 52
81 80 78 77 77 77 77 77 77 76 75 75 77 78 80 81 82 84 85 86 87 88 88 89 89 89 88 87 85 83 82 80 79 78 77 76 77 78 79 79 79 78 77 74 71 69 68 68 67 65 63 62 61 61 62 63 63 62 63 66 70 72 73 73 71 69 68 67 66 64 62 59 57 55 54 54 52 52 52 52 51 50 50 50 51
84 82 79 77 76 76 76 76 75 75 75 75 77 79 81 84 86 87 88 88 89 89 90 91 91 92 92 91 90 88 86 84 83 82 81 79 78 78 78 77 76 76 77 76 73 72 71 71 72 70 68 66 64 63 63 64 64 64 65 68 71 73 73 72 68 66 66 66 65 63 61 58 56 55 54 53 52 51 51 50 49 49 49 50 52
89 86 84 81 79 77 76 76 75 74 74 74 75 77 79 83 85 87 89 89 89 89 89 90 91 92 92 92 91 89 87 84 81 81 81 81 81 79 78 76 74 74 77 78 77 76 74 74 75 74 71 68 65 63 62 64 66 67 69 70 71 72 73 71 67 65 66 66 64 62 59 57 56 55 54 52 51 50 49 49 50 50 50 52 53
92 92 90 88 86 83 81 79 78 77 76 76 76 76 78 80 81 83 84 85 86 86 86 87 88 89 91 92 91 90 88 84 79 75 73 75 77 77 76 74 73 73 75 76 76 73 70 72 74 72 69 68 65 64 64 66 68 70 71 72 71 72 72 71 68 68 67 65 63 60 57 56 56 55 54 52 51 51 50 51 51 51 52 53 55
95 94 94 94 94 92 89 86 83 82 81 80 79 79 79 79 80 80 80 80 81 82 83 84 85 87 89 91 91 89 87 83 79 74 71 71 72 73 74 73 72 71 72 72 71 67 64 66 68 68 68 67 66 66 67 69 70 71 72 73 72 72 72 72 71 70 65 61 60 58 56 56 55 54 54 53 52 52 53 53 52 52 53 56 58
98 98 97 97 98 97 96 94 91 88 85 84 84 85 85 84 82 81 81 80 79 80 80 81 82 83 83 85 85 82 79 76 75 72 71 72 73 74 74 74 73 71 70 69 68 64 62 63 65 67 68 68 68 69 70 71 72 73 73 74 73 71 71 72 72 67 62 59 57 56 55 55 55 56 56 55 55 54 55 55 55 56 57 59 61
101 101 101 100 99 99 99 99 99 97 93 90 88 88 89 89 88 85 84 82 81 81 80 81 82 82 81 80 80 78 74 71 71 71 71 72 73 75 76 76 75 73 71 70 68 64 62 63 65 67 68 68 69 70 71 72 74 74 73 72 71 70 70 71 69 64 60 57 56 55 56 55 56 57 58 59 58 57 58 59 59 60 61 62 63
100 101 101 102 102 102 102 102 102 102 101 98 95 92 92 92 92 91 88 86 84 83 83 83 83 84 84 82 81 80 78 76 74 72 71 72 74 75 76 78 78 77 74 72 70 67 64 64 64 65 66 68 69 71 73 74 74 73 72 71 69 68 69 69 66 62 58 57 56 56 56 56 57 59 60 61 61 60 61 62 63 64 64 65 65
98 98 99 101 101 102 103 103 103 103 103 103 101 99 96 95 95 94 92 90 87 85 84 85 85 86 87 86 83 81 81 82 80 76 73 73 75 75 76 76 77 77 74 72 70 68 66 65 66 67 69 71 74 75 74 73 71 71 71 71 69 65 64 64 63 61 60 58 57 57 57 57 58 59 60 61 62 62 64 65 66 66 67 67 67
96 96 97 98 98 99 99 100 100 100 100 101 102 102 101 99 98 97 96 95 93 90 88 87 88 88 88 87 84 81 80 80 79 76 75 74 75 75 74 72 71 71 71 70 69 69 68 68 69 70 71 72 73 73 71 68 68 69 70 69 64 59 58 60 61 64 64 61 58 58 59 59 59 60 61 62 63 64 66 67 68 69 69 70 70
95 96 96 97 97 97 97 97 97 97 96 97 98 100 101 101 100 100 99 98 97 96 94 92 91 91 91 88 84 80 78 77 75 73 74 75 74 73 72 70 68 69 70 70 70 70 71 71 70 69 68 68 69 69 69 68 69 69 68 64 58 57 60 63 65 68 67 65 63 62 61 61 61 61 60 62 64 66 68 69 70 72 72 72 71
94 95 96 97 98 99 100 100 98 97 96 95 95 96 97 98 98 97 97 96 96 96 96 95 94 94 92 89 84 79 76 75 73 72 73 74 74 72 71 71 71 71 72 72 72 71 69 69 68 68 68 68 70 71 70 70 68 66 63 59 56 57 61 64 68 72 73 73 73 70 66 64 65 64 62 63 66 68 70 72 73 74 74 73 73
93 94 95 96 98 100 102 103 102 101 99 98 96 94 93 93 93 92 92 92 93 92 91 90 90 90 88 83 80 76 73 72 73 73 73 73 73 72 70 71 72 73 72 72 72 71 68 67 68 70 70 70 71 72 72 68 64 61 61 60 58 58 59 60 64 70 77 82 83 77 69 65 65 65 65 66 68 70 72 74 75 75 74 74 74
93 93 94 95 97 98 101 103 105 105 104 103 101 98 95 92 91 89 88 88 89 89 87 84 83 83 82 80 78 76 74 71 71 72 73 72 72 72 72 71 72 73 72 72 72 72 70 69 70 70 69 69 70 71 71 66 61 61 64 64 60 58 58 59 60 64 74 85 86 76 68 64 63 64 65 67 69 72 74 75 75 74 74 75 76
94 94 94 95 96 97 99 100 102 105 107 108 107 104 101 98 95 92 89 87 86 87 87 85 82 80 78 78 78 78 77 74 71 70 71 72 72 72 73 72 72 73 73 73 74 74 74 72 70 69 68 68 68 69 70 66 62 63 66 66 63 61 60 60 61 63 71 79 77 71 67 65 64 64 65 68 70 71 72 73 73 74 75 76 78
94 94 94 94 95 97 98 99 100 101 104 108 110 109 107 105 102 99 96 92 89 88 89 88 86 83 80 77 77 78 79 78 75 71 72 73 73 73 73 72 71 71 71 73 73 74 73 71 69 69 69 69 68 68 68 65 64 65 66 66 66 64 61 59 60 61 65 68 68 67 67 67 66 66 67 68 69 70 70 72 74 76 77 79 81
92 92 92 93 94 95 97 99 100 100 101 104 107 110 111 111 109 107 103 99 95 93 92 92 91 90 86 83 80 79 78 79 78 75 73 73 73 73 73 71 70 70 70 70 70 70 70 70 70 71 72 72 70 69 67 66 67 68 68 67 64 61 60 60 60 60 63 66 68 69 69 68 67 68 69 70 70 70 71 73 77 79 81 82 83
87 88 88 89 91 92 94 96 97 99 100 101 103 106 108 111 112 112 111 108 105 102 100 98 96 94 92 91 88 85 81 79 78 77 76 75 75 74 73 71 70 70 70 70 69 69 70 71 72 72 71 69 67 66 67 68 69 69 67 63 61 61 63 64 64 65 67 69 70 70 70 70 71 72 73 73 72 73 74 77 80 83 83 83 83
81 81 82 83 85 86 89 91 92 95 97 99 100 102 103 105 107 109 109 110 111 111 110 107 104 100 98 96 95 91 86 80 78 78 77 76 76 77 76 73 71 70 70 71 71 71 71 71 71 69 68 66 64 65 68 69 69 67 64 62 62 65 67 68 68 69 71 72 72 72 72 73 73 73 74 75 76 77 79 81 83 84 83 83 83
77 76 76 78 79 80 82 84 86 88 91 93 95 97 99 100 102 103 102 101 102 104 106 107 107 106 103 100 97 94 88 82 79 78 77 74 75 76 77 75 73 70 70 71 72 71 70 69 68 66 66 66 65 66 69 70 70 67 64 63 65 68 70 70 71 72 73 72 71 72 73 74 74 74 76 78 79 81 82 82 83 84 83 83 83
73 72 72 73 74 75 77 78 79 81 83 85 88 91 93 94 96 98 98 97 96 96 96 98 100 101 100 97 95 92 87 81 79 78 76 74 74 74 74 75 75 74 73 73 73 71 69 67 67 67 68 68 67 66 68 70 71 70 67 66 68 70 71 72 73 73 73 72 71 73 74 75 75 76 79 80 81 81 81 82 83 83 83 82 82
69 68 67 68 69 70 71 72 73 74 75 78 81 84 87 89 89 90 91 93 92 92 91 91 93 94 93 90 89 88 84 80 79 78 76 75 74 74 75 75 76 77 78 77 76 74 71 70 69 70 70 69 68 67 67 68 71 72 72 73 73 72 73 73 72 72 72 73 74 75 75 76 77 79 80 80 79 79 80 81 81 81 82 83 83
64 63 62 62 63 64 65 65 65 67 68 70 73 75 79 82 83 84 85 87 88 88 87 86 87 89 89 86 85 86 84 81 80 79 77 75 75 75 75 76 76 78 79 78 77 76 75 74 73 73 73 71 70 69 70 71 73 75 77 76 75 74 74 74 73 72 73 74 75 75 76 77 78 78 77 76 77 77 79 80 81 82 83 83 84
59 58 56 56 56 57 57 58 58 59 61 63 64 67 70 73 76 79 80 81 82 83 83 82 83 85 86 84 83 85 84 83 82 80 77 76 76 76 76 76 76 75 75 73 72 73 73 74 75 75 75 74 73 72 73 75 76 78 79 78 77 76 76 75 74 73 74 74 75 76 77 77 76 76 75 76 77 79 81 82 83 83 83 83 83
54 53 52 52 52 52 52 52 52 53 54 55 57 59 61 63 67 71 74 75 76 77 77 78 78 81 82 82 81 83 84 84 84 83 79 75 75 76 77 77 76 74 74 73 71 69 68 68 70 72 74 75 76 76 76 75 74 74 74 75 75 75 75 74 73 72 72 73 74 75 76 76 75 76 77 78 80 81 82 83 83 83 83 82 80
50 50 49 49 48 48 49 49 49 49 50 50 51 52 54 56 58 62 65 68 70 71 71 72 73 76 78 79 79 82 84 85 86 86 82 78 77 77 78 77 75 74 74 74 72 70 68 66 65 67 70 72 73 73 73 71 69 68 67 67 68 68 67 67 67 66 67 68 69 70 72 73 75 77 78 80 82 82 82 82 82 81 80 78 76
48 47 47 47 47 46 46 47 47 47 47 47 47 47 48 49 51 54 57 60 63 64 66 67 69 71 73 75 76 80 83 85 87 88 86 83 81 80 79 77 75 74 74 73 71 69 67 66 64 64 64 65 64 64 65 65 65 65 64 63 63 62 62 63 63 64 66 68 69 72 74 76 77 79 80 81 81 81 81 81 79 78 76 74 73
43 44 44 44 44 44 43 43 43 43 43 42 42 43 44 45 46 47 49 52 55 57 59 61 63 65 66 69 72 76 81 85 88 89 88 86 85 83 81 79 78 76 74 73 71 68 66 66 65 64 64 63 62 61 61 62 63 63 63 63 63 63 63 64 66 67 69 71 72 74 75 77 77 78 79 79 79 78 78 76 75 74 73 71 71
39 40 40 40 40 39 38 37 38 39 39 38 38 39 40 41 41 42 43 44 47 50 52 54 56 57 59 62 66 71 76 81 85 87 88 88 87 85 83 81 79 77 75 74 73 71 69 69 70 69 68 67 65 64 63 63 63 64 65 65 66 66 66 67 68 69 70 71 72 73 74 75 75 75 75 75 74 73 73 72 71 70 69 69 68
35 36 37 36 34 33 31 31 32 33 34 35 35 36 37 37 38 38 38 38 39 42 44 46 48 50 52 55 59 64 69 74 79 83 86 87 88 87 84 82 81 78 77 77 77 75 74 76 77 77 74 71 68 67 66 66 66 66 66 66 66 66 67 67 68 68 69 70 71 71 71 71 71 71 70 70 69 69 68 68 67 66 66 66 66
32 33 32 31 29 27 27 27 28 29 30 31 32 32 33 33 34 34 34 33 34 35 37 39 41 43 46 49 53 57 61 66 70 75 79 83 85 87 87 86 85 84 83 82 81 81 81 82 82 81 79 75 72 70 68 68 68 68 68 68 67 67 67 68 68 68 69 69 69 69 68 68 67 67 67 66 66 65 64 63 63 63 63 64 64
29 29 28 26 24 23 23 24 25 25 26 27 27 27 27 28 28 29 29 29 29 30 31 32 35 38 40 43 47 50 54 58 62 66 71 75 78 81 83 85 86 85 84 83 82 83 85 85 84 82 80 78 75 72 70 69 68 68 68 68 68 67 67 67 67 67 67 67 67 66 66 65 64 64 63 63 62 61 60 60 61 61 61 61 61
26 25 23 22 21 20 21 21 21 21 20 20 20 21 20 20 21 22 22 23 23 24 26 28 30 32 35 38 42 45 48 50 53 57 60 65 68 71 74 77 78 77 76 76 77 80 83 84 82 80 78 76 74 72 71 69 68 67 66 65 65 64 64 65 65 66 65 64 63 62 62 62 61 61 60 59 58 58 58 58 58 58 58 58 59
23 22 20 19 18 18 18 17 16 15 14 13 13 13 13 13 14 15 16 17 18 19 21 23 25 28 31 34 37 39 41 43 46 48 51 54 57 60 62 64 65 65 65 67 69 72 75 76 76 74 72 70 69 68 67 65 64 63 62 61 61 61 62 62 62 61 60 59 59 59 58 58 57 56 56 55 55 55 55 55 55 55 56 57 57
22 21 20 19 18 18 16 14 11 9 8 7 7 6 5 5 6 7 8 10 11 13 15 18 21 23 25 28 30 32 34 36 38 41 43 45 47 50 52 53 54 55 57 59 61 63 66 67 67 66 65 64 63 62 62 61 60 60 59 58 58 57 57 56 55 55 55 55 55 54 54 53 52 52 52 53 53 52 52 52 53 54 55 56 57
21 21 21 20 20 19 17 14 11 10 9 9 8 7 6 5 5 5 7 8 9 11 12 14 16 19 21 22 23 24 26 28 31 33 36 38 40 42 43 44 45 46 47 50 53 56 57 58 58 58 58 57 57 56 56 55 55 55 54 53 52 51 50 50 50 50 51 50 50 50 49 49 50 50 50 50 50 50 51 52 53 54 55 56 56
20 20 21 21 20 20 18 16 13 12 11 11 10 9 7 5 4 4 4 5 6 7 8 9 11 13 15 16 17 19 20 22 24 27 30 31 32 32 32 33 35 37 39 42 45 47 48 49 49 50 50 50 49 49 49 49 49 49 48 48 47 47 47 48 48 48 48 48 48 48 48 48 49 48 48 48 49 50 51 52 52 53 54 55 56
21 20 20 20 19 19 18 17 15 12 11 10 9 8 6 3 2 2 3 4 5 7 9 10 11 11 11 13 15 17 19 20 22 24 27 29 30 30 31 31 32 33 34 35 36 37 39 40 41 41 42 42 43 44 44 45 45 45 45 45 45 45 46 47 47 47 48 48 48 48 47 46 46 46 47 48 49 50 51 51 52 53 54 55 57
20 20 20 20 20 18 17 16 15 13 11 10 9 8 6 4 4 4 5 5 6 8 10 11 12 12 13 14 16 17 18 19 21 23 25 27 27 28 28 28 29 29 29 28 28 29 31 33 35 36 37 38 39 40 41 42 42 43 43 44 44 45 46 47 48 49 49 48 47 46 44 44 44 45 46 47 48 49 50 51 52 53 55 56 59
23 20 19 18 19 19 17 15 14 13 12 11 11 9 8 6 6 5 5 5 5 7 8 9 10 10 11 12 14 15 16 18 19 21 22 22 23 23 23 24 25 26 26 26 26 26 26 28 30 33 34 35 36 37 38 39 40 41 42 43 45 46 47 48 48 48 47 46 44 43 42 42 43 44 46 47 48 49 50 51 52 54 56 59 61
37 31 26 21 18 17 16 14 13 12 12 11 11 10 9 8 7 6 5 6 7 8 9 10 10 10 11 12 12 13 15 16 17 18 19 20 20 21 21 22 23 24 25 25 25 25 25 26 28 30 32 34 35 37 38 39 40 42 43 45 46 46 46 46 46 45 44 42 41 41 41 42 43 44 46 47 48 49 50 52 54 56 59 61 63
Wind_Direction
254 254 253 252 252 252 250 250 252 253 255 256 257 258 258 256 254 253 252 252 251 250 249 247 246 246 247 249 250 251 252 253 253 254 255 256 257 258 260 261 263 263 264 264 265 266 268 269 271 272 274 275 275 276 276 276 276 277 277 277 277 277 277 276 275 275 275 274 274 274 275 276 276 278 279 280 281 282 284 285 286 287 288 288 288
252 251 251 251 250 249 249 249 250 251 253 255 256 258 260 260 260 258 257 256 256 255 254 251 249 247 246 247 249 251 253 255 257 259 260 261 261 262 262 263 263 264 264 265 266 267 268 269 271 272 272 273 275 276 276 277 277 276 276 276 276 276 276 276 276 276 276 276 277 277 278 279 280 281 282 284 285 286 287 288 288 289 290 290 290
254 252 251 250 250 249 248 249 250 251 253 254 255 256 258 259 260 260 260 259 259 259 258 257 255 253 252 251 252 253 255 258 260 262 263 263 264 264 265 265 265 265 266 266 267 267 269 270 271 271 271 271 273 274 275 275 275 275 275 276 276 276 276 275 275 276 276 277 278 279 280 281 282 283 284 286 288 289 289 290 289 290 290 290 290
255 254 253 252 251 251 251 251 251 253 254 256 257 257 257 258 258 258 259 259 259 258 257 257 256 256 256 255 256 256 257 259 262 263 264 264 264 264 265 265 266 266 266 266 267 268 269 270 271 270 270 270 271 272 273 273 274 274 275 276 276 276 275 275 275 275 276 277 278 279 280 281 282 284 285 287 289 290 290 289 288 288 288 288 288
256 254 253 254 254 254 254 253 253 254 256 257 258 259 259 259 259 258 258 258 258 258 257 257 256 256 256 256 256 257 258 260 263 265 267 266 266 266 266 267 267 267 267 267 268 269 269 270 270 270 269 269 269 270 271 273 274 275 276 276 276 275 275 275 274 275 276 277 277 278 279 280 281 283 284 286 288 288 287 286 285 286 286 286 286
258 255 253 253 254 256 256 256 255 256 257 257 257 257 258 259 260 260 260 259 258 257 257 257 257 258 258 258 259 260 261 262 264 266 268 270 270 270 269 269 269 270 270 270 270 270 270 269 268 268 268 268 268 269 271 273 275 276 276 275 275 274 274 273 274 274 275 275 276 277 278 279 280 281 282 284 285 285 284 283 283 285 285 285 285
261 258 255 253 254 255 257 257 257 258 259 258 257 256 255 255 256 258 259 260 260 260 258 257 257 258 259 260 261 262 263 265 266 268 269 271 272 272 272 272 271 271 272 272 271 271 270 269 267 266 267 268 268 269 271 273 274 275 275 275 274 273 273 272 272 272 273 274 275 275 276 276 277 278 280 281 282 281 281 282 283 284 284 285 285
263 260 258 256 255 255 257 258 257 257 258 258 258 257 256 255 254 254 255 256 258 259 260 259 258 258 259 260 261 262 263 265 266 268 269 270 272 274 275 275 274 273 272 272 271 270 269 268 267 266 266 268 269 270 271 272 273 274 275 275 274 273 272 272 271 271 272 272 273 274 274 274 274 276 278 278 278 278 279 280 282 283 283 284 284
264 262 261 259 258 257 258 259 259 257 256 256 257 257 256 256 255 254 254 253 254 255 257 258 258 259 259 260 261 262 263 264 265 266 267 269 271 273 274 275 275 273 271 271 271 270 270 269 268 267 267 268 269 271 273 273 273 273 274 274 274 273 272 271 271 270 271 271 272 272 272 272 273 274 275 275 275 277 279 280 280 281 282 282 281
265 265 264 263 262 261 261 262 262 261 258 256 256 256 256 256 256 255 254 253 253 253 254 255 257 258 259 260 261 262 263 264 264 265 266 267 268 270 272 273 273 272 270 270 270 270 270 269 269 268 268 270 272 273 273 274 273 272 272 273 273 273 271 270 270 269 269 270 270 270 270 271 272 272 272 273 275 277 278 279 279 280 280 279 279
265 265 266 265 265 264 264 263 263 262 260 258 256 255 256 256 256 256 256 255 254 254 253 254 255 256 258 259 260 261 262 263 264 265 265 266 267 268 269 270 271 270 269 268 269 269 270 270 270 269 269 271 273 273 272 273 273 272 271 271 272 272 271 269 268 267 268 268 268 268 270 271 270 270 272 274 275 276 277 278 278 278 278 278 278
266 265 265 264 264 263 262 262 261 260 259 258 256 256 255 255 256 256 257 256 256 256 256 256 255 256 257 258 259 261 262 263 264 264 265 266 266 267 267 268 268 268 267 266 267 268 270 271 271 270 269 270 271 271 270 271 271 270 269 269 270 270 269 266 265 265 266 266 266 268 268 268 268 270 272 273 274 275 276 276 276 276 277 277 277
267 266 265 264 263 261 259 259 258 257 256 256 256 256 255 255 255 256 257 257 258 258 258 258 258 258 258 258 259 260 262 264 264 264 265 265 265 265 265 265 266 267 267 266 267 269 271 272 271 268 267 268 270 269 269 269 269 269 269 268 269 269 267 263 262 264 265 265 266 266 265 265 267 270 271 271 272 273 273 273 274 274 274 275 276
267 267 267 266 265 262 259 258 256 255 253 252 253 254 254 255 255 256 256 256 257 258 258 259 260 260 260 260 259 259 260 261 261 261 262 264 263 262 262 263 264 267 267 268 268 270 273 273 269 266 266 268 269 269 269 269 269 269 269 269 268 267 265 262 262 263 263 263 262 262 262 264 267 268 269 269 270 270 270 271 271 272 273 275 276
264 265 266 267 267 265 263 259 257 255 254 254 253 253 253 254 255 256 257 257 257 257 257 257 257 258 259 259 258 257 257 257 257 258 261 263 264 263 263 263 264 265 267 268 270 272 274 272 267 266 268 269 269 269 269 270 270 271 271 270 268 266 263 261 261 262 261 259 258 259 261 264 266 266 266 266 267 267 267 268 269 271 273 275 276
262 262 263 265 266 266 265 263 260 258 256 255 255 254 254 253 253 255 256 258 259 260 260 259 259 259 259 259 257 255 255 256 258 260 262 264 266 267 267 267 268 268 269 271 271 271 271 269 266 266 267 268 268 269 269 269 270 271 271 269 267 264 261 260 261 261 258 257 258 261 263 264 264 264 264 264 265 265 266 268 269 271 273 274 276
261 261 262 263 263 264 265 265 265 263 261 258 256 255 255 254 253 253 253 254 257 259 261 262 263 263 263 262 259 257 257 259 261 261 263 265 266 268 269 270 270 271 271 272 272 270 268 267 267 267 266 267 268 268 269 270 270 269 268 267 265 262 259 259 260 258 256 258 262 264 264 264 264 264 263 263 264 265 267 269 271 272 273 274 274
262 262 262 262 262 263 264 265 265 265 265 263 260 257 255 254 253 253 252 252 253 255 258 259 261 263 264 264 263 261 260 261 263 263 263 263 264 266 268 269 269 270 270 270 270 268 266 265 266 266 266 266 266 267 268 269 268 266 265 264 263 260 258 259 258 255 255 261 264 265 264 263 263 263 264 264 265 267 269 271 272 272 273 273 273
264 262 262 262 262 263 263 264 264 263 263 263 263 261 259 256 253 252 252 251 251 253 255 257 258 260 262 263 264 263 262 262 263 264 262 262 262 264 266 266 266 266 266 266 266 264 263 262 262 263 264 265 266 267 266 265 264 262 262 263 261 258 258 259 256 254 258 264 266 264 262 262 263 264 265 266 267 268 270 272 272 273 274 274 274
267 265 264 262 262 262 263 263 263 262 262 261 261 261 261 259 257 255 253 253 252 253 255 257 258 258 260 262 263 264 263 263 264 264 263 262 263 264 265 264 263 262 262 263 263 262 260 260 261 264 265 267 267 266 263 261 259 260 262 263 259 257 259 260 257 256 259 263 265 264 262 261 263 265 265 267 268 270 271 273 274 274 274 275 276
270 268 266 265 263 263 263 263 262 261 260 260 259 259 259 260 260 259 258 257 256 256 257 258 259 258 259 260 262 262 262 262 262 261 262 262 263 264 264 264 263 262 261 261 261 261 260 260 262 265 265 266 265 262 259 257 257 260 263 261 256 258 262 261 259 258 259 261 263 264 262 262 262 263 265 267 269 271 274 275 276 276 276 277 278
270 269 268 266 265 263 262 262 262 261 260 258 257 256 256 257 258 259 259 259 259 259 259 259 259 258 258 259 259 260 259 259 258 257 257 259 260 261 263 264 264 263 262 262 262 262 261 261 262 263 263 264 262 259 257 256 258 262 263 256 253 258 261 260 258 258 258 259 260 260 262 264 264 263 264 267 269 273 276 277 278 278 278 278 280
270 269 268 267 265 264 263 261 261 261 260 259 257 255 254 255 255 256 258 259 259 259 259 258 257 255 255 256 255 255 255 254 254 253 253 255 256 258 259 261 262 262 262 263 263 261 260 261 262 263 263 262 261 259 258 257 260 262 258 251 251 256 260 260 261 259 257 257 257 258 264 269 268 265 266 269 272 275 276 277 279 279 279 280 282
270 269 268 267 266 265 264 262 261 260 259 259 258 256 254 254 253 254 255 257 258 258 258 257 255 254 254 253 251 251 251 251 251 252 251 252 252 253 255 256 258 259 260 261 261 260 261 262 261 261 261 261 261 260 259 258 260 260 255 251 253 257 260 263 264 261 258 257 258 261 267 271 271 269 269 270 272 274 276 278 280 281 281 282 283
271 269 268 267 266 265 265 264 262 260 259 258 258 257 256 255 254 253 253 254 256 258 258 258 257 255 254 252 250 249 249 249 250 251 251 251 251 252 253 254 255 257 258 259 259 259 259 260 259 259 260 260 260 259 258 257 258 257 253 252 256 262 265 264 264 263 261 259 260 265 270 272 272 271 270 271 274 276 279 281 281 282 283 283 284
273 271 269 268 266 265 264 263 263 262 260 259 258 257 257 256 255 254 254 253 254 256 258 259 259 257 256 254 252 250 249 248 250 252 253 253 253 253 254 254 255 256 258 259 259 257 257 257 257 257 258 258 259 257 256 256 257 254 252 254 260 266 267 264 262 262 262 261 263 268 271 271 270 270 271 274 278 280 282 282 282 283 283 283 282
274 272 271 269 267 265 264 263 262 261 260 260 258 257 257 256 255 255 254 253 253 253 256 258 259 259 258 257 256 255 253 251 252 254 255 255 254 255 255 255 255 256 257 259 258 256 255 255 255 256 257 258 258 255 253 255 256 254 254 258 263 266 266 263 261 261 262 264 268 270 270 268 268 271 274 277 280 282 283 283 282 281 281 280 280
276 274 272 270 269 267 266 264 262 261 260 259 259 258 257 257 256 256 255 254 254 253 254 256 257 259 259 259 259 260 259 257 256 256 256 255 255 255 255 254 254 255 256 258 257 254 254 254 254 255 257 258 257 255 255 257 257 255 255 259 263 264 263 262 262 262 264 267 269 269 267 268 270 273 275 277 280 283 283 281 279 278 278 278 280
278 276 274 273 271 269 267 265 264 262 260 259 258 258 258 257 257 256 256 256 256 255 255 255 255 256 258 258 259 261 261 261 259 259 258 256 254 254 255 254 253 253 254 255 254 252 252 252 252 255 257 257 257 258 259 260 258 254 255 259 262 262 262 262 262 264 267 268 268 267 267 269 271 273 275 278 281 281 279 277 275 275 276 278 281
279 277 276 275 273 271 268 267 265 263 262 260 258 257 257 257 257 257 256 255 256 256 255 254 254 254 255 256 257 258 258 258 258 258 258 257 255 255 255 255 254 253 253 253 253 251 250 251 252 253 256 257 259 260 260 259 258 256 258 261 262 262 262 263 264 266 269 270 269 268 268 269 269 272 275 277 276 275 273 272 273 274 277 280 283
280 279 278 276 275 273 271 269 268 266 264 262 260 258 256 256 256 257 256 255 254 254 254 253 253 253 253 253 253 253 253 253 253 254 255 254 253 254 255 255 255 254 253 252 252 252 252 252 252 253 255 257 261 262 262 261 259 258 259 262 263 263 264 265 267 269 270 270 268 268 267 268 269 271 272 271 270 269 270 271 274 277 280 283 285
282 281 279 278 277 276 274 272 271 269 267 264 262 260 257 255 254 255 255 255 254 253 252 252 252 252 251 250 249 248 248 248 249 249 249 249 249 251 252 253 254 254 252 250 250 251 252 252 252 253 254 256 261 263 263 262 260 260 261 264 265 264 264 265 267 268 268 267 267 266 266 266 267 267 266 266 268 270 272 274 277 280 282 284 285
285 284 283 282 281 279 278 276 274 272 270 267 264 262 260 257 254 253 252 253 253 252 251 250 250 250 250 249 246 244 243 244 244 244 244 245 247 248 250 251 251 250 249 247 247 247 249 250 251 251 253 256 260 262 261 261 260 261 263 264 263 263 263 264 265 265 265 264 263 262 262 262 263 263 265 267 269 272 274 277 279 281 283 284 285
288 287 286 285 283 282 280 279 277 275 273 270 268 265 262 260 257 254 251 251 251 250 250 248 248 248 248 247 245 242 240 241 241 240 240 242 244 246 247 248 248 248 248 248 248 247 247 247 248 249 252 256 259 260 259 259 259 259 260 261 260 260 260 260 261 261 260 260 259 259 259 260 261 263 266 268 271 274 276 278 280 281 282 283 284
290 289 287 285 284 283 281 280 278 276 274 273 270 268 265 262 259 256 253 251 249 249 248 247 246 246 246 245 243 241 239 238 237 237 238 240 242 243 246 248 249 250 251 251 251 249 248 247 247 248 251 254 256 256 256 255 256 256 256 256 256 257 257 257 257 258 257 257 257 258 259 261 263 265 268 270 273 275 277 278 280 281 281 282 283
291 288 286 285 283 282 280 279 277 276 275 273 272 269 266 263 260 257 255 252 250 248 246 245 244 244 244 243 241 239 237 236 235 235 237 239 240 243 245 248 249 250 251 251 250 250 250 249 249 249 250 251 252 252 252 252 253 253 253 254 255 256 257 258 259 260 260 261 262 263 264 266 267 269 271 273 275 276 277 279 279 280 281 281 282
292 290 287 285 284 282 281 279 277 276 275 274 273 271 268 264 261 258 255 253 250 247 245 244 243 242 242 242 240 238 236 234 233 234 236 237 239 241 243 245 247 248 249 249 249 248 249 249 249 249 250 250 249 250 250 250 251 252 253 254 255 256 258 260 262 263 265 266 267 268 269 271 272 273 274 275 276 277 278 279 279 280 280 281 282
295 293 291 288 286 284 282 280 278 276 275 275 274 272 269 265 261 258 255 253 250 247 245 244 242 241 241 240 239 237 235 233 233 233 235 237 240 241 242 242 244 246 247 247 246 246 247 248 249 250 250 250 250 250 250 250 250 251 252 254 256 257 260 262 265 267 268 270 271 272 273 273 274 274 275 276 276 277 278 278 279 280 280 281 281
299 298 295 292 289 286 283 280 278 277 276 276 275 273 270 266 262 258 256 253 250 248 246 244 243 242 241 240 239 237 236 234 233 233 234 237 240 242 243 242 242 244 246 247 246 245 247 250 252 252 252 252 252 252 253 254 254 255 256 257 259 261 263 265 268 270 272 273 273 274 274 274 274 274 275 275 276 277 277 278 279 279 280 280 280
304 302 298 295 292 288 284 281 278 277 278 278 276 274 272 267 263 258 255 252 250 248 246 245 243 242 241 240 239 238 237 235 234 233 234 236 239 241 243 243 243 244 246 246 245 245 248 251 254 255 255 255 255 256 257 259 260 260 262 263 264 266 267 269 271 272 273 273 273 274 274 274 274 274 274 275 275 276 276 277 278 278 278 279 279
309 306 301 297 293 290 287 285 282 281 280 280 278 276 272 268 263 258 254 251 249 247 246 244 243 241 240 239 239 238 237 236 235 235 235 236 238 240 241 243 244 245 245 245 245 246 248 251 254 256 257 258 259 260 261 263 264 264 265 267 268 269 270 271 272 272 272 273 273 274 274 273 273 273 273 274 274 275 275 276 276 277 278 278 279
316 311 306 301 298 295 294 292 290 288 285 282 280 277 273 269 264 259 254 250 248 247 245 244 242 241 240 239 239 238 237 236 235 234 235 236 238 240 241 242 242 243 243 244 245 245 247 250 254 256 257 258 260 262 264 265 266 266 267 268 269 269 270 271 272 272 272 272 272 272 272 272 271 272 272 272 273 273 274 275 276 277 278 278 279
326 320 315 311 310 309 305 302 298 294 291 288 285 280 275 269 263 258 254 250 247 245 243 241 240 239 238 237 237 237 237 236 235 234 234 235 236 237 239 240 240 241 242 243 244 245 247 249 253 256 257 258 260 262 264 265 266 266 267 267 268 268 269 270 270 270 270 269 269 269 269 269 269 270 270 271 272 273 274 275 276 277 278 278 279
339 335 331 330 329 326 320 316 311 305 301 297 292 285 277 269 261 254 250 247 244 241 240 239 239 238 237 236 236 236 236 236 235 234 233 233 233 234 235 236 237 238 239 241 244 246 248 250 252 255 256 258 259 261 262 263 263 263 264 264 265 266 266 266 266 266 266 266 266 266 267 267 268 269 270 271 272 273 274 275 276 277 278 279 280
351 350 350 351 351 347 342 337 333 331 330 325 316 309 300 285 272 262 254 249 247 244 243 242 241 240 239 237 236 235 234 234 233 232 232 231 231 232 232 233 234 236 238 241 243 246 248 250 252 253 254 256 257 257 258 259 259 260 260 261 262 262 263 263 263 262 262 263 264 265 266 267 268 269 271 271 272 274 275 275 276 277 279 281 283
359 1 1 2 3 2 1 2 5 8 9 7 3 359 349 332 311 290 272 261 255 251 248 247 245 243 241 237 234 230 229 229 228 228 229 230 231 232 233 234 234 235 236 238 241 244 246 248 249 250 251 252 252 253 253 254 255 256 257 258 258 259 260 260 260 260 261 262 263 264 266 268 269 270 271 272 273 274 275 276 277 279 281 283 285
1 3 4 6 6 6 7 9 12 11 6 1 356 348 336 321 302 280 263 254 247 244 246 246 242 235 228 223 220 220 221 223 225 226 226 225 226 227 229 231 231 231 233 236 239 241 243 244 245 246 247 247 247 248 249 250 251 252 253 255 256 257 258 258 258 260 261 262 264 266 267 269 270 271 272 272 273 274 275 277 279 281 283 286 288
4 5 6 6 5 4 5 6 7 5 359 351 347 344 341 341 337 304 281 266 256 252 252 251 246 235 221 215 217 222 225 226 227 226 223 220 220 222 225 227 229 230 233 236 238 239 240 240 241 241 242 242 243 244 245 246 248 250 251 253 255 256 257 258 260 262 263 264 266 267 268 270 271 271 271 272 273 275 277 279 281 284 287 289 291
3 5 8 9 8 6 4 2 2 1 357 349 343 339 335 327 312 295 280 266 252 243 240 239 239 235 231 228 228 230 230 229 228 226 223 222 223 225 225 226 227 228 229 232 234 236 238 239 238 238 238 240 242 244 245 247 249 251 253 255 256 258 260 262 263 264 265 266 266 267 268 269 269 270 271 273 275 277 279 282 284 287 289 291 292
14 9 6 7 9 11 11 8 4 0 356 352 349 343 334 321 306 289 272 255 239 230 230 234 236 236 235 234 232 231 231 231 232 230 228 226 225 224 224 225 228 229 230 232 235 237 240 241 240 240 240 242 244 246 248 250 252 254 256 258 260 261 262 263 263 263 264 264 265 266 267 267 269 270 272 275 277 279 282 285 287 289 290 291 292
30 27 22 17 11 8 8 9 9 6 360 353 350 348 344 337 326 306 280 257 239 230 232 239 243 245 245 244 243 241 239 238 238 238 237 234 230 228 228 230 233 235 236 239 241 243 245 246 246 245 245 246 247 250 252 254 256 257 259 260 260 261 261 260 261 261 262 262 264 265 266 267 269 272 274 277 280 283 285 287 288 290 291 291 293
Height
5641 5640 5640 5641 5641 5641 5641 5642 5642 5642 5643 5644 5645 5645 5643 5642 5641 5640 5641 5641 5640 5641 5641 5642 5642 5643 5645 5646 5648 5649 5649 5650 5650 5651 5651 5652 5652 5653 5653 5654 5654 5655 5655 5655 5655 5655 5654 5654 5654 5654 5654 5654 5654 5654 5653 5653 5653 5654 5654 5653 5653 5653 5653 5652 5652 5654 5656 5656 5655 5654 5654 5655 5656 5656 5655 5655 5656 5656 5655 5655 5654 5653 5652 5650 5650
5631 5631 5631 5631 5631 5631 5631 5632 5632 5633 5634 5635 5636 5636 5635 5635 5634 5634 5635 5635 5635 5635 5635 5635 5634 5634 5635 5636 5638 5639 5641 5642 5642 5643 5644 5644 5645 5645 5646 5646 5646 5646 5647 5647 5647 5646 5646 5646 5646 5646 5646 5646 5646 5646 5645 5645 5645 5646 5646 5646 5646 5646 5645 5645 5644 5645 5647 5648 5647 5647 5646 5646 5647 5648 5647 5647 5647 5647 5646 5646 5645 5645 5643 5641 5640
5620 5620 5621 5621 5621 5621 5622 5622 5622 5623 5624 5625 5626 5626 5626 5626 5626 5627 5628 5628 5629 5629 5629 5629 5629 5628 5628 5629 5630 5631 5632 5633 5634 5634 5635 5636 5636 5637 5637 5637 5637 5638 5639 5639 5638 5638 5638 5638 5638 5637 5637 5638 5638 5637 5637 5637 5638 5638 5638 5638 5638 5638 5638 5638 5637 5637 5638 5640 5640 5639 5638 5638 5639 5640 5639 5638 5637 5637 5637 5636 5636 5636 5635 5634 5633
5611 5610 5611 5611 5612 5612 5612 5612 5613 5613 5614 5614 5615 5615 5616 5616 5617 5617 5618 5619 5620 5621 5622 5622 5622 5622 5622 5622 5622 5623 5624 5624 5624 5625 5626 5626 5627 5627 5627 5628 5628 5629 5630 5630 5630 5630 5630 5630 5630 5629 5629 5629 5629 5629 5629 5630 5630 5630 5630 5630 5630 5631 5631 5631 5630 5630 5630 5632 5632 5632 5632 5631 5631 5631 5631 5630 5629 5628 5628 5627 5627 5627 5627 5626 5626
5602 5601 5601 5601 5602 5602 5603 5603 5603 5604 5605 5605 5605 5605 5605 5606 5606 5607 5608 5609 5610 5611 5612 5612 5613 5613 5613 5613 5613 5613 5614 5614 5614 5615 5616 5616 5617 5617 5618 5618 5619 5619 5620 5620 5621 5621 5622 5622 5622 5621 5621 5621 5622 5622 5621 5622 5622 5622 5622 5622 5623 5623 5624 5624 5624 5623 5623 5623 5624 5624 5625 5625 5624 5624 5623 5623 5622 5622 5621 5620 5619 5619 5619 5618 5618
5590 5590 5590 5590 5591 5591 5592 5593 5594 5595 5595 5596 5596 5595 5595 5595 5596 5596 5597 5597 5599 5600 5601 5601 5602 5602 5602 5602 5602 5603 5603 5603 5603 5605 5606 5606 5607 5607 5608 5609 5609 5609 5609 5609 5611 5612 5612 5613 5613 5613 5613 5613 5614 5614 5613 5613 5613 5614 5614 5615 5615 5616 5616 5617 5616 5616 5616 5615 5616 5617 5617 5618 5617 5616 5616 5616 5615 5615 5615 5613 5612 5612 5611 5609 5609
5578 5578 5578 5579 5579 5579 5580 5581 5582 5583 5584 5584 5585 5585 5585 5585 5586 5586 5585 5586 5587 5588 5589 5590 5590 5591 5591 5591 5592 5592 5592 5592 5593 5594 5595 5596 5596 5597 5598 5598 5598 5598 5599 5599 5600 5601 5602 5602 5603 5605 5605 5604 5604 5605 5605 5605 5605 5605 5606 5606 5607 5608 5609 5609 5609 5609 5608 5608 5608 5608 5610 5610 5610 5609 5609 5609 5608 5608 5608 5606 5605 5604 5603 5602 5600
5565 5566 5566 5566 5567 5567 5567 5567 5568 5570 5571 5572 5573 5573 5574 5574 5575 5575 5576 5576 5576 5576 5576 5578 5578 5580 5581 5581 5582 5582 5582 5583 5584 5585 5585 5586 5586 5586 5587 5588 5588 5588 5588 5589 5590 5591 5592 5592 5593 5595 5595 5595 5595 5595 5595 5596 5597 5597 5598 5598 5599 5600 5600 5600 5601 5601 5600 5600 5599 5600 5601 5602 5602 5602 5602 5602 5601 5600 5600 5599 5598 5596 5596 5594 5592
5551 5552 5553 5553 5554 5554 5554 5554 5554 5556 5557 5559 5560 5560 5562 5562 5563 5564 5564 5565 5566 5565 5565 5565 5566 5568 5570 5570 5571 5571 5572 5574 5575 5576 5576 5576 5576 5576 5577 5577 5578 5578 5578 5579 5580 5581 5582 5583 5583 5584 5585 5584 5585 5585 5585 5587 5588 5589 5589 5590 5590 5591 5591 5592 5592 5593 5592 5591 5590 5591 5592 5593 5594 5594 5594 5594 5593 5592 5592 5591 5590 5589 5588 5586 5583
5539 5539 5539 5539 5540 5540 5541 5541 5541 5542 5544 5545 5547 5548 5549 5550 5551 5552 5552 5553 5554 5554 5554 5555 5556 5557 5558 5558 5559 5560 5562 5565 5565 5566 5566 5566 5566 5567 5567 5568 5568 5568 5569 5571 5572 5573 5574 5574 5574 5575 5575 5575 5576 5576 5575 5577 5579 5580 5581 5581 5581 5582 5582 5583 5583 5584 5583 5583 5582 5582 5583 5583 5584 5585 5585 5584 5584 5583 5582 5582 5581 5580 5579 5578 5575
5526 5526 5526 5526 5526 5527 5527 5528 5528 5529 5530 5532 5533 5535 5536 5537 5538 5539 5540 5541 5542 5542 5543 5544 5545 5545 5545 5547 5548 5550 5552 5554 5554 5555 5555 5556 5556 5556 5557 5558 5558 5559 5560 5563 5565 5566 5566 5566 5567 5567 5567 5567 5567 5567 5567 5567 5569 5570 5572 5572 5572 5572 5573 5574 5574 5574 5574 5573 5573 5573 5574 5574 5574 5575 5575 5575 5575 5574 5573 5572 5571 5571 5570 5569 5566
5512 5513 5514 5514 5514 5513 5514 5515 5515 5515 5517 5518 5520 5521 5523 5524 5524 5525 5527 5528 5529 5530 5531 5532 5533 5533 5534 5535 5537 5539 5541 5543 5543 5544 5545 5545 5545 5545 5546 5547 5548 5549 5551 5553 5555 5557 5558 5559 5559 5559 5559 5558 5558 5558 5558 5558 5559 5560 5561 5562 5562 5562 5563 5563 5564 5564 5564 5563 5564 5564 5565 5565 5565 5566 5566 5565 5565 5564 5563 5562 5561 5561 5561 5560 5558
5496 5498 5499 5500 5501 5502 5501 5502 5503 5503 5503 5504 5506 5508 5509 5510 5511 5512 5513 5515 5516 5518 5519 5520 5521 5521 5522 5524 5526 5528 5530 5531 5532 5532 5533 5534 5534 5534 5534 5536 5537 5538 5540 5543 5545 5547 5549 5550 5550 5550 5549 5548 5548 5548 5549 5549 5549 5550 5550 5551 5552 5551 5552 5552 5553 5553 5553 5553 5554 5554 5555 5556 5556 5556 5556 5556 5555 5555 5554 5553 5552 5552 5552 5550 5549
5482 5483 5483 5483 5485 5487 5488 5489 5490 5490 5491 5492 5493 5494 5495 5497 5498 5498 5500 5502 5503 5505 5506 5507 5509 5509 5510 5512 5514 5516 5518 5519 5519 5520 5521 5522 5522 5523 5523 5524 5526 5528 5530 5532 5535 5538 5540 5540 5539 5539 5538 5538 5538 5538 5538 5538 5538 5539 5539 5541 5541 5541 5540 5541 5542 5543 5543 5543 5543 5544 5545 5546 5546 5546 5546 5546 5546 5546 5545 5544 5543 5543 5543 5541 5541
5469 5469 5469 5468 5468 5470 5472 5474 5476 5477 5477 5478 5480 5481 5482 5483 5484 5484 5486 5488 5489 5491 5492 5494 5496 5497 5498 5499 5500 5503 5506 5506 5506 5507 5508 5509 5510 5510 5511 5512 5514 5517 5519 5522 5525 5528 5529 5529 5529 5529 5528 5528 5528 5527 5527 5527 5527 5528 5529 5530 5531 5530 5530 5531 5531 5532 5532 5533 5533 5534 5536 5537 5537 5536 5536 5536 5536 5536 5535 5534 5534 5534 5534 5533 5532
5455 5455 5456 5455 5454 5453 5454 5456 5458 5461 5463 5464 5466 5467 5468 5469 5470 5470 5472 5474 5475 5477 5478 5480 5482 5483 5485 5485 5487 5490 5493 5492 5493 5495 5496 5496 5497 5497 5498 5499 5502 5505 5508 5511 5514 5516 5518 5519 5519 5519 5518 5518 5518 5517 5517 5517 5517 5518 5519 5520 5520 5520 5520 5521 5521 5522 5522 5523 5523 5524 5525 5527 5527 5526 5526 5526 5527 5527 5526 5525 5525 5525 5524 5524 5523
5439 5440 5441 5440 5440 5439 5438 5438 5440 5441 5445 5448 5450 5452 5453 5455 5456 5456 5458 5461 5462 5463 5464 5466 5468 5469 5471 5473 5474 5477 5480 5480 5481 5483 5483 5484 5484 5485 5486 5487 5489 5493 5497 5500 5502 5505 5506 5508 5508 5508 5509 5509 5509 5508 5508 5508 5508 5509 5510 5510 5510 5509 5510 5510 5511 5512 5512 5513 5514 5515 5515 5516 5517 5516 5517 5517 5517 5517 5516 5515 5516 5515 5514 5514 5514
5422 5424 5425 5424 5424 5424 5422 5423 5424 5424 5426 5428 5431 5435 5438 5439 5441 5441 5443 5446 5449 5450 5451 5453 5455 5456 5458 5460 5461 5464 5467 5468 5469 5471 5472 5472 5472 5473 5474 5476 5478 5482 5486 5488 5491 5493 5495 5496 5497 5498 5499 5499 5498 5497 5497 5498 5498 5499 5500 5499 5499 5499 5500 5500 5501 5501 5502 5503 5504 5504 5505 5506 5506 5506 5507 5507 5508 5508 5507 5506 5506 5505 5504 5503 5503
5406 5408 5408 5408 5408 5408 5407 5407 5408 5409 5410 5411 5413 5416 5420 5423 5425 5426 5428 5431 5434 5436 5438 5440 5443 5445 5446 5447 5449 5451 5454 5455 5457 5459 5460 5460 5460 5461 5462 5465 5468 5472 5475 5478 5480 5482 5484 5485 5486 5487 5488 5488 5487 5486 5487 5488 5489 5489 5489 5489 5489 5490 5491 5490 5490 5491 5491 5492 5494 5494 5495 5496 5496 5497 5497 5498 5498 5498 5497 5496 5496 5495 5494 5493 5492
5391 5392 5392 5392 5392 5391 5391 5390 5392 5393 5394 5396 5398 5399 5401 5404 5408 5410 5412 5415 5418 5422 5424 5426 5429 5432 5434 5435 5437 5438 5441 5443 5445 5446 5447 5447 5448 5448 5450 5454 5458 5461 5464 5467 5469 5471 5472 5474 5475 5476 5476 5476 5475 5475 5476 5478 5479 5479 5478 5479 5480 5481 5480 5480 5480 5481 5481 5482 5483 5484 5485 5486 5486 5487 5487 5488 5488 5488 5487 5487 5486 5485 5484 5483 5481
5375 5376 5376 5377 5376 5375 5374 5374 5375 5376 5378 5379 5381 5384 5386 5387 5389 5392 5395 5397 5401 5405 5409 5412 5415 5419 5421 5422 5425 5426 5428 5432 5434 5434 5434 5434 5434 5436 5439 5443 5446 5449 5452 5455 5457 5460 5461 5462 5463 5464 5464 5464 5464 5464 5466 5468 5468 5468 5469 5470 5471 5470 5469 5470 5471 5470 5470 5471 5472 5472 5474 5475 5475 5476 5477 5477 5477 5477 5476 5476 5476 5475 5474 5472 5470
5359 5359 5360 5360 5360 5359 5358 5357 5358 5359 5361 5362 5364 5368 5371 5372 5373 5376 5378 5380 5384 5388 5393 5397 5400 5404 5407 5409 5412 5414 5416 5419 5422 5423 5423 5423 5423 5425 5429 5432 5434 5437 5440 5443 5446 5448 5450 5451 5452 5452 5453 5453 5453 5454 5456 5457 5458 5459 5459 5460 5460 5459 5460 5461 5461 5460 5460 5460 5459 5460 5462 5464 5464 5465 5466 5466 5466 5466 5466 5465 5465 5465 5463 5461 5459
5343 5343 5343 5343 5343 5343 5342 5342 5342 5342 5344 5345 5347 5351 5355 5356 5357 5360 5362 5365 5368 5372 5377 5381 5384 5389 5393 5396 5398 5401 5402 5405 5408 5410 5411 5412 5413 5416 5419 5421 5423 5426 5429 5432 5435 5436 5438 5439 5439 5440 5441 5442 5442 5443 5445 5447 5449 5449 5448 5448 5448 5449 5450 5450 5450 5451 5451 5448 5447 5449 5452 5453 5454 5455 5456 5456 5455 5455 5455 5455 5454 5454 5452 5450 5447
5325 5326 5326 5326 5326 5326 5325 5326 5326 5326 5327 5327 5329 5333 5338 5340 5342 5344 5348 5350 5353 5357 5362 5366 5369 5373 5378 5382 5385 5387 5389 5391 5394 5396 5398 5401 5402 5405 5408 5410 5413 5415 5419 5421 5423 5425 5427 5427 5427 5428 5430 5431 5431 5432 5434 5437 5439 5439 5437 5437 5437 5439 5441 5440 5439 5441 5440 5437 5437 5442 5444 5444 5444 5445 5445 5445 5445 5445 5444 5443 5443 5442 5440 5438 5435
5308 5309 5310 5310 5309 5308 5307 5308 5309 5310 5310 5311 5312 5316 5320 5323 5325 5329 5332 5335 5339 5343 5347 5350 5354 5358 5362 5367 5371 5373 5375 5377 5380 5383 5385 5388 5390 5392 5395 5399 5403 5405 5408 5410 5412 5414 5415 5415 5415 5417 5418 5420 5421 5421 5423 5427 5429 5428 5426 5426 5428 5430 5431 5430 5428 5429 5429 5428 5430 5433 5433 5433 5433 5434 5434 5434 5434 5434 5433 5432 5431 5429 5428 5427 5424
5290 5290 5291 5292 5291 5290 5289 5290 5292 5292 5293 5294 5295 5298 5302 5305 5308 5312 5316 5320 5325 5330 5333 5336 5339 5343 5348 5353 5356 5358 5360 5363 5367 5371 5373 5375 5377 5378 5381 5387 5392 5395 5396 5398 5401 5403 5404 5404 5405 5406 5407 5408 5410 5411 5413 5416 5418 5417 5415 5415 5418 5421 5421 5419 5418 5418 5419 5420 5421 5422 5422 5423 5423 5423 5423 5422 5422 5422 5421 5419 5418 5416 5416 5415 5412
5270 5271 5272 5272 5272 5271 5271 5272 5274 5276 5277 5278 5279 5281 5285 5288 5290 5294 5299 5304 5308 5313 5318 5322 5325 5329 5334 5339 5341 5343 5347 5350 5354 5358 5360 5361 5363 5365 5368 5374 5380 5383 5385 5387 5389 5392 5393 5393 5393 5394 5395 5397 5399 5401 5403 5404 5406 5407 5407 5407 5409 5411 5409 5408 5407 5408 5409 5410 5410 5411 5411 5412 5412 5412 5411 5410 5410 5410 5409 5407 5405 5404 5403 5403 5401
5251 5251 5253 5253 5253 5253 5253 5254 5256 5258 5260 5262 5263 5265 5268 5270 5272 5276 5283 5287 5290 5295 5301 5306 5311 5316 5320 5324 5327 5330 5335 5339 5343 5344 5345 5347 5350 5352 5355 5361 5367 5372 5374 5376 5378 5380 5381 5381 5381 5382 5384 5387 5389 5391 5393 5394 5395 5398 5399 5400 5400 5398 5397 5397 5398 5399 5399 5400 5400 5400 5401 5401 5401 5400 5399 5398 5398 5398 5398 5396 5394 5392 5391 5390 5389
5235 5234 5235 5235 5234 5235 5235 5235 5237 5239 5241 5243 5245 5248 5251 5252 5253 5257 5264 5269 5272 5276 5281 5288 5296 5301 5305 5308 5313 5318 5324 5329 5330 5329 5331 5335 5338 5340 5342 5348 5354 5360 5363 5365 5365 5367 5369 5369 5370 5372 5374 5377 5380 5382 5383 5383 5385 5388 5390 5391 5389 5387 5386 5388 5389 5389 5389 5389 5389 5390 5390 5390 5390 5389 5388 5387 5387 5387 5386 5384 5382 5381 5380 5379 5377
5220 5220 5220 5218 5217 5217 5217 5217 5219 5219 5221 5223 5225 5229 5233 5234 5234 5238 5245 5252 5255 5257 5261 5269 5278 5283 5288 5294 5300 5305 5311 5316 5317 5317 5321 5324 5326 5327 5330 5334 5340 5347 5351 5352 5353 5355 5357 5359 5360 5362 5364 5366 5370 5372 5372 5373 5375 5377 5379 5379 5378 5376 5376 5377 5379 5379 5379 5378 5378 5378 5378 5378 5379 5378 5377 5377 5376 5375 5374 5373 5371 5370 5369 5367 5365
5205 5207 5206 5203 5202 5202 5201 5202 5203 5202 5203 5205 5206 5208 5213 5217 5219 5220 5226 5232 5237 5240 5244 5252 5259 5265 5270 5279 5285 5290 5297 5302 5305 5307 5310 5312 5314 5316 5318 5322 5327 5333 5337 5339 5341 5343 5346 5348 5350 5352 5354 5356 5359 5361 5363 5363 5364 5365 5366 5367 5367 5367 5367 5367 5368 5368 5367 5367 5367 5368 5368 5368 5368 5368 5367 5366 5364 5363 5362 5360 5359 5358 5357 5355 5353
5192 5193 5193 5191 5189 5188 5187 5188 5188 5188 5188 5189 5189 5190 5193 5198 5203 5207 5208 5212 5218 5223 5229 5235 5242 5247 5254 5262 5270 5276 5283 5289 5293 5295 5298 5300 5303 5305 5307 5310 5315 5320 5324 5327 5329 5332 5335 5337 5339 5341 5343 5345 5347 5350 5352 5353 5354 5354 5355 5355 5356 5357 5357 5357 5357 5358 5357 5357 5357 5357 5357 5358 5357 5357 5356 5355 5353 5352 5350 5348 5347 5346 5345 5343 5341
5181 5181 5181 5179 5178 5176 5174 5174 5175 5174 5174 5174 5175 5176 5177 5180 5186 5191 5193 5195 5199 5205 5213 5220 5226 5231 5238 5245 5253 5261 5268 5274 5279 5283 5286 5288 5291 5293 5295 5298 5303 5308 5311 5315 5319 5321 5324 5327 5329 5330 5332 5334 5336 5338 5340 5342 5343 5343 5344 5345 5346 5346 5347 5347 5348 5348 5348 5347 5347 5347 5346 5346 5346 5345 5345 5344 5342 5340 5338 5337 5336 5335 5333 5331 5329
5172 5171 5170 5168 5166 5165 5163 5162 5162 5162 5161 5161 5162 5163 5164 5166 5169 5173 5178 5182 5185 5190 5197 5205 5211 5215 5222 5229 5237 5245 5253 5260 5265 5270 5273 5276 5278 5281 5282 5285 5291 5297 5302 5307 5310 5312 5314 5316 5318 5319 5320 5321 5323 5326 5328 5330 5331 5332 5333 5334 5335 5336 5337 5338 5338 5337 5337 5337 5336 5336 5335 5335 5335 5335 5334 5333 5331 5329 5328 5326 5325 5323 5321 5319 5317
5162 5161 5159 5157 5155 5154 5153 5151 5151 5151 5150 5151 5150 5151 5152 5153 5155 5158 5163 5168 5173 5177 5183 5190 5195 5200 5206 5214 5222 5230 5238 5245 5251 5256 5260 5264 5266 5267 5269 5273 5281 5288 5294 5298 5302 5304 5306 5307 5308 5307 5307 5309 5311 5314 5316 5317 5319 5321 5322 5323 5324 5325 5326 5327 5326 5326 5326 5326 5325 5325 5325 5325 5325 5325 5324 5323 5321 5319 5318 5315 5313 5312 5309 5307 5306
5153 5151 5149 5147 5145 5144 5143 5142 5141 5140 5140 5140 5140 5140 5141 5142 5144 5146 5150 5154 5160 5165 5170 5175 5181 5185 5191 5199 5208 5215 5222 5230 5237 5242 5247 5250 5252 5254 5257 5264 5271 5278 5284 5288 5292 5296 5297 5297 5297 5296 5295 5297 5299 5302 5304 5306 5308 5310 5311 5312 5313 5314 5315 5316 5316 5316 5316 5316 5316 5317 5317 5317 5317 5316 5314 5312 5310 5309 5307 5305 5302 5300 5298 5296 5295
5144 5142 5140 5138 5136 5135 5134 5133 5132 5131 5131 5131 5131 5131 5131 5132 5133 5135 5138 5142 5147 5153 5157 5162 5168 5173 5179 5187 5194 5199 5206 5215 5222 5228 5232 5236 5239 5243 5248 5255 5261 5267 5273 5279 5283 5286 5286 5286 5286 5285 5285 5286 5289 5292 5294 5296 5298 5300 5301 5303 5304 5304 5305 5306 5307 5307 5307 5307 5307 5307 5307 5307 5307 5306 5303 5301 5299 5298 5296 5293 5291 5289 5287 5284 5283
5137 5135 5133 5130 5129 5128 5126 5125 5123 5123 5123 5123 5122 5122 5122 5123 5124 5126 5128 5132 5136 5141 5146 5151 5156 5162 5169 5174 5178 5184 5191 5199 5207 5215 5220 5224 5228 5234 5239 5244 5249 5255 5263 5269 5273 5274 5274 5274 5274 5275 5275 5276 5279 5282 5285 5287 5288 5290 5291 5292 5293 5294 5295 5296 5296 5295 5295 5296 5296 5295 5295 5295 5295 5293 5291 5289 5287 5286 5284 5281 5279 5278 5276 5273 5272
5131 5128 5125 5123 5122 5120 5119 5118 5117 5116 5115 5115 5115 5114 5114 5115 5116 5118 5120 5124 5127 5132 5137 5141 5146 5152 5158 5161 5164 5170 5178 5185 5195 5204 5210 5213 5217 5222 5226 5231 5236 5244 5253 5259 5261 5262 5262 5262 5262 5262 5263 5266 5270 5273 5275 5277 5278 5279 5280 5281 5282 5283 5283 5283 5283 5283 5283 5283 5283 5283 5283 5282 5282 5280 5278 5277 5276 5274 5272 5270 5268 5266 5265 5263 5261
5126 5123 5120 5117 5116 5114 5113 5112 5111 5110 5109 5108 5108 5107 5107 5108 5109 5111 5113 5117 5120 5124 5128 5133 5138 5142 5146 5150 5153 5159 5166 5174 5184 5192 5198 5201 5204 5208 5213 5219 5226 5235 5242 5246 5249 5249 5249 5249 5249 5250 5253 5257 5261 5263 5264 5266 5266 5268 5269 5269 5270 5271 5271 5271 5271 5271 5271 5271 5270 5270 5271 5270 5269 5268 5267 5266 5265 5263 5261 5259 5257 5255 5253 5252 5250
5122 5119 5116 5113 5111 5110 5109 5107 5106 5105 5104 5102 5102 5101 5101 5102 5103 5105 5108 5111 5114 5117 5121 5126 5130 5134 5137 5141 5145 5150 5156 5164 5172 5179 5184 5188 5192 5197 5203 5210 5217 5224 5229 5233 5235 5236 5236 5236 5238 5241 5245 5249 5251 5252 5253 5254 5255 5256 5257 5258 5259 5259 5259 5259 5259 5259 5259 5259 5259 5259 5259 5259 5258 5257 5256 5255 5254 5253 5251 5249 5247 5245 5243 5241 5239
5119 5115 5112 5110 5108 5106 5105 5103 5101 5100 5099 5098 5097 5096 5096 5097 5099 5101 5104 5106 5109 5113 5116 5120 5124 5127 5130 5134 5138 5142 5148 5155 5161 5168 5173 5178 5182 5188 5194 5200 5206 5211 5216 5219 5221 5222 5223 5225 5229 5233 5236 5238 5240 5241 5242 5243 5243 5245 5246 5246 5247 5248 5248 5248 5248 5247 5247 5248 5248 5248 5248 5247 5247 5246 5245 5245 5244 5243 5242 5240 5238 5236 5234 5232 5229
5116 5113 5110 5107 5105 5103 5101 5099 5098 5096 5095 5094 5094 5093 5093 5094 5096 5098 5100 5103 5106 5109 5112 5115 5118 5122 5125 5128 5132 5136 5141 5147 5153 5159 5164 5169 5173 5179 5184 5189 5194 5199 5202 5205 5207 5209 5212 5216 5220 5223 5225 5227 5228 5229 5230 5232 5233 5234 5235 5236 5236 5237 5237 5237 5237 5237 5237 5238 5238 5238 5238 5237 5237 5236 5235 5235 5234 5233 5232 5231 5229 5227 5225 5222 5220
5115 5112 5109 5106 5103 5101 5099 5097 5095 5094 5093 5093 5092 5092 5092 5093 5095 5096 5098 5100 5103 5105 5108 5111 5114 5117 5121 5124 5127 5132 5137 5141 5146 5151 5156 5160 5165 5169 5174 5178 5183 5187 5190 5192 5195 5199 5203 5206 5210 5212 5214 5216 5217 5218 5219 5221 5222 5223 5224 5225 5226 5227 5228 5228 5228 5228 5228 5229 5229 5229 5228 5228 5227 5227 5226 5226 5225 5225 5223 5222 5220 5218 5216 5213 5211
5114 5112 5109 5106 5103 5101 5098 5097 5095 5094 5094 5093 5093 5093 5093 5094 5095 5096 5098 5100 5102 5104 5106 5109 5112 5114 5117 5121 5124 5129 5133 5136 5140 5144 5148 5152 5156 5160 5164 5168 5172 5176 5180 5183 5186 5189 5193 5196 5200 5202 5204 5205 5207 5208 5209 5210 5212 5213 5214 5216 5217 5218 5219 5219 5219 5220 5220 5220 5220 5220 5220 5220 5219 5219 5218 5217 5217 5216 5215 5213 5211 5210 5207 5204 5202
5114 5112 5109 5106 5104 5102 5100 5098 5097 5096 5095 5095 5094 5095 5095 5095 5096 5098 5099 5100 5102 5104 5106 5108 5111 5113 5116 5119 5122 5125 5129 5132 5135 5139 5142 5146 5149 5153 5157 5161 5165 5168 5172 5174 5177 5180 5184 5187 5190 5192 5194 5195 5197 5198 5200 5201 5203 5204 5206 5208 5209 5210 5211 5211 5212 5212 5212 5212 5212 5212 5212 5212 5211 5210 5210 5209 5208 5207 5206 5205 5203 5201 5198 5196 5193
5115 5113 5110 5107 5105 5103 5101 5100 5099 5098 5098 5097 5097 5097 5097 5097 5098 5099 5100 5102 5103 5105 5107 5109 5110 5112 5115 5117 5120 5124 5127 5129 5132 5136 5139 5142 5146 5149 5153 5156 5159 5162 5165 5167 5169 5172 5175 5178 5180 5183 5185 5187 5189 5190 5192 5193 5195 5197 5199 5200 5201 5203 5203 5204 5205 5205 5204 5204 5204 5204 5204 5204 5203 5202 5201 5201 5200 5199 5198 5196 5195 5193 5190 5187 5185
5116 5113 5111 5109 5107 5105 5103 5102 5101 5100 5100 5100 5099 5099 5099 5100 5100 5101 5102 5103 5105 5106 5108 5110 5111 5113 5115 5117 5120 5123 5125 5128 5131 5133 5136 5139 5142 5145 5149 5152 5155 5157 5159 5161 5163 5166 5168 5170 5173 5175 5177 5179 5181 5183 5185 5186 5188 5190 5192 5193 5194 5196 5197 5197 5197 5197 5197 5197 5197 5197 5197 5196 5195 5194 5193 5193 5192 5191 5190 5188 5186 5184 5182 5179 5177
5117 5114 5112 5110 5108 5106 5105 5104 5103 5102 5102 5101 5101 5101 5101 5102 5102 5103 5103 5105 5106 5107 5109 5110 5112 5114 5116 5118 5120 5122 5125 5127 5129 5132 5134 5137 5140 5142 5146 5148 5151 5153 5155 5157 5159 5161 5163 5164 5167 5169 5171 5173 5175 5177 5178 5180 5182 5184 5186 5187 5188 5189 5189 5190 5190 5190 5190 5190 5190 5190 5189 5188 5188 5187 5186 5185 5184 5183 5182 5180 5179 5176 5174 5171 5169
5119 5116 5114 5112 5110 5108 5106 5105 5104 5104 5103 5103 5103 5103 5103 5103 5103 5104 5105 5106 5107 5108 5109 5110 5112 5114 5115 5117 5119 5122 5124 5126 5128 5130 5132 5135 5137 5140 5143 5145 5147 5149 5151 5153 5155 5157 5158 5160 5162 5164 5165 5167 5169 5171 5173 5175 5176 5178 5179 5181 5181 5182 5182 5182 5182 5183 5183 5183 5183 5183 5182 5181 5181 5180 5179 5178 5177 5176 5174 5173 5171 5168 5166 5163 5160
5122 5119 5117 5114 5112 5110 5108 5107 5106 5105 5104 5104 5104 5104 5104 5104 5105 5105 5106 5107 5107 5108 5110 5111 5112 5114 5115 5117 5119 5120 5122 5124 5126 5128 5130 5133 5135 5137 5140 5142 5144 5146 5147 5149 5151 5153 5154 5156 5157 5159 5160 5162 5164 5166 5167 5169 5171 5172 5173 5174 5174 5174 5175 5175 5175 5176 5176 5176 5176 5176 5175 5175 5174 5173 5172 5171 5170 5169 5167 5165 5162 5160 5158 5155 5152